Location: Ellerstadt
(49.4644°N, 8.2615°E)
Time: 04:33:39
(UTC+00:00)

Cosmos 1437 - Pass Details

Date: 03 March 2021
Orbit: 348 x 351 km, 81.2° (Epoch: 11 April)

Event Time Altitude Azimuth Distance (km) Brightness Sun altitude
Rises 17:50:34 0° 341° (NNW) 2,181 6.6 -6.9°
Reaches altitude 10° 17:52:37 10° 332° (NNW) 1,333 5.7 -7.2°
Maximum altitude 17:55:18 36° 264° (W) 586 4.3 -7.6°
Drops below altitude 10° 17:57:58 10° 195° (SSW) 1,326 5.5 -8.1°
Sets 18:00:00 0° 186° (S) 2,167 6.5 -8.4°
